[[{"header":{"parameterUnit":"m.s-1","parameterCategory":1,"la1":30.2992,"la2":30.254,"lo1":-89.0895,"lo2":-89.0443,"dy":0.0025,"dx":0.0025,"nx":19,"ny":19,"refTime":"2026-04-05T21:00:00:Z","depth":0,"parameterNumber":2,"parameterNumberName":"U-component_of_WINDS"},"data":[0,0,0,-0.4742,-0.4744,-0.483,-0.4831,-0.4943,-0.4944,0,0,0,0,0,0,0,0,0,0,0,-0.4715,-0.4716,-0.4742,-0.4744,-0.483,-0.4831,-0.4943,-0.4944,0,0,0,0,0,0,0,0,0,0,0,-0.4715,-0.4716,-0.4717,-0.4744,-0.483,-0.4831,-0.4942,-0.4877,0,0,0,0,0,0,0,0,0,0,-0.4793,-0.4767,-0.4716,-0.4717,-0.4745,-0.483,-0.4831,-0.4874,-0.4881,-0.4904,0,-0.4922,0,-0.4935,-0.4951,-0.4952,0,0,0,-0.4745,-0.4761,-0.4785,-0.4717,-0.4745,-0.483,-0.4792,-0.4878,-0.4886,-0.4913,-0.4924,-0.4928,-0.4936,-0.4952,-0.4952,-0.5076,-0.5076,0,0,-0.474,-0.4731,-0.4779,-0.479,-0.4775,-0.4789,-0.4794,-0.4883,-0.4894,-0.4924,-0.4931,-0.4938,-0.4953,-0.4953,-0.5075,-0.5076,0,0,0,-0.4726,-0.4728,-0.4749,-0.4786,-0.4801,-0.4791,-0.4798,-0.489,-0.4898,-0.4932,-0.494,-0.4953,-0.4955,-0.5075,-0.5076,-0.5093,0,0,0,-0.4723,-0.4719,-0.4747,-0.4743,-0.4799,-0.4846,-0.4803,-0.4892,-0.4902,-0.4939,-0.4953,-0.4956,-0.5074,-0.5075,-0.5091,-0.5103,0,0,0,-0.471,-0.4718,-0.473,-0.4742,-0.4779,-0.4845,-0.4858,-0.4894,-0.4907,-0.4952,-0.4956,-0.5074,-0.5075,-0.509,-0.5101,-0.5134,0,0,0,-0.4695,-0.4745,-0.473,-0.4789,-0.4778,-0.4854,-0.4858,-0.4915,-0.4956,-0.4954,-0.5074,-0.5075,-0.5089,-0.5099,-0.5132,-0.5161,-0.5171,0,0,-0.4753,-0.4751,-0.4787,-0.4776,-0.4853,-0.4842,-0.4922,-0.4968,-0.4981,-0.5044,-0.5047,-0.5092,-0.5101,-0.5134,-0.5232,-0.524,0,0,0,-0.4803,-0.4828,-0.485,-0.4887,-0.4923,-0.4955,-0.4989,-0.5006,-0.5059,-0.5011,-0.5112,-0.5118,-0.5137,-0.5152,-0.5159,-0.5177,-0.5081,-0.5081,-0.5081,-0.4874,-0.4887,-0.4947,-0.497,-0.5006,-0.504,-0.5071,-0.5101,-0.5104,-0.5127,-0.5147,-0.5204,-0.5221,-0.5226,-0.5245,-0.5162,-0.5162,-0.5162,-0.5162,-0.4962,-0.5001,-0.5002,-0.5061,-0.5075,-0.5125,-0.516,-0.5161,-0.5211,-0.5191,-0.5209,-0.5188,-0.5235,-0.5252,-0.5163,-0.5163,-0.5163,-0.5163,-0.5162,-0.5012,-0.5032,-0.5051,-0.5106,-0.5147,-0.5169,-0.5216,-0.5227,-0.5237,-0.5255,-0.5277,-0.5277,-0.5279,-0.5264,-0.5265,-0.5265,-0.5265,-0.5265,-0.5265,-0.5056,-0.5076,-0.5114,-0.5155,-0.518,-0.5215,-0.525,-0.5275,-0.5307,-0.5311,-0.5312,-0.5313,-0.5236,-0.5217,-0.5269,-0.5268,-0.5268,-0.5267,-0.5267,-0.5143,-0.5125,-0.5183,-0.5209,-0.5258,-0.5298,-0.531,-0.5362,-0.5385,-0.5408,-0.5405,-0.5346,-0.5346,-0.5341,-0.5325,-0.5401,-0.5401,-0.5401,-0.5401,-0.5186,-0.5186,-0.5248,-0.5288,-0.5328,-0.5345,-0.5412,-0.544,-0.5466,-0.5481,-0.5471,-0.5451,-0.5445,-0.5449,-0.5441,-0.5427,-0.5527,-0.5527,-0.5527,-0.5241,-0.5246,-0.53,-0.5323,-0.5363,-0.5396,-0.546,-0.5507,-0.5533,-0.5532,-0.5493,-0.5488,-0.5456,-0.5444,-0.5445,-0.5432,-0.5407,0,0]},{"header":{"parameterUnit":"m.s-1","parameterCategory":1,"la1":30.2992,"la2":30.254,"lo1":-89.0895,"lo2":-89.0443,"dy":0.0025,"dx":0.0025,"nx":19,"ny":19,"refTime":"2026-04-05T21:00:00:Z","depth":0,"parameterNumber":3,"parameterNumberName":"V-component_of_WINDS"},"data":[0,0,0,-6.6917,-6.692,-6.7056,-6.7057,-6.7236,-6.7237,0,0,0,0,0,0,0,0,0,0,0,-6.6883,-6.6884,-6.6917,-6.692,-6.7056,-6.7057,-6.7235,-6.7237,0,0,0,0,0,0,0,0,0,0,0,-6.6882,-6.6884,-6.6886,-6.6921,-6.7056,-6.7057,-6.7235,-6.713,0,0,0,0,0,0,0,0,0,0,-6.6997,-6.6971,-6.6883,-6.6886,-6.6922,-6.7056,-6.7057,-6.7125,-6.7136,-6.7178,0,-6.7218,0,-6.7231,-6.725,-6.7251,0,0,0,-6.6915,-6.6962,-6.6994,-6.6886,-6.6923,-6.7056,-6.6993,-6.7131,-6.7144,-6.7193,-6.7221,-6.7227,-6.7234,-6.7251,-6.7252,-6.7517,-6.7518,0,0,-6.6907,-6.6909,-6.6985,-6.7003,-6.6985,-6.6989,-6.6998,-6.7139,-6.7168,-6.7221,-6.7231,-6.7237,-6.7253,-6.7254,-6.7515,-6.7517,0,0,0,-6.689,-6.6904,-6.6933,-6.6995,-6.702,-6.6993,-6.7003,-6.7161,-6.7171,-6.7233,-6.7239,-6.7254,-6.7256,-6.7514,-6.7516,-6.7595,0,0,0,-6.6885,-6.6894,-6.693,-6.6932,-6.7018,-6.7093,-6.7022,-6.7161,-6.7177,-6.7238,-6.7254,-6.7258,-6.7512,-6.7515,-6.7589,-6.7631,0,0,0,-6.6872,-6.6892,-6.6915,-6.6932,-6.6991,-6.7091,-6.7108,-6.7164,-6.7181,-6.7251,-6.7258,-6.7511,-6.7514,-6.7584,-6.7622,-6.7703,0,0,0,-6.6857,-6.6979,-6.6916,-6.7054,-6.699,-6.7139,-6.7107,-6.7217,-6.7286,-6.7255,-6.7512,-6.7516,-6.7582,-6.7617,-6.7698,-6.7773,-6.7804,0,0,-6.7012,-6.6997,-6.7079,-6.7027,-6.7189,-6.7118,-6.7291,-6.7349,-6.7352,-6.7461,-6.7467,-6.7591,-6.7622,-6.7702,-6.7976,-6.8001,0,0,0,-6.7129,-6.7187,-6.723,-6.7298,-6.7349,-6.7397,-6.743,-6.7452,-6.7546,-6.741,-6.7641,-6.7659,-6.7706,-6.7742,-6.7763,-6.7804,-6.7532,-6.7532,-6.7531,-6.7349,-6.735,-6.7485,-6.7504,-6.757,-6.7606,-6.766,-6.7695,-6.7672,-6.7728,-6.776,-6.7927,-6.7968,-6.7984,-6.8027,-6.7798,-6.7799,-6.7799,-6.7799,-6.7576,-6.766,-6.7633,-6.7755,-6.7754,-6.7855,-6.7894,-6.7876,-6.7969,-6.7901,-6.7942,-6.7869,-6.8012,-6.8049,-6.7805,-6.7804,-6.7803,-6.7803,-6.7802,-6.7721,-6.7762,-6.7791,-6.7893,-6.797,-6.7983,-6.8076,-6.8071,-6.8066,-6.8107,-6.8142,-6.814,-6.8139,-6.8124,-6.8124,-6.8125,-6.8125,-6.8126,-6.8126,-6.7861,-6.7891,-6.7971,-6.804,-6.8085,-6.8143,-6.8182,-6.8226,-6.8272,-6.8261,-6.8261,-6.8234,-6.8026,-6.7974,-6.8135,-6.8134,-6.8132,-6.8132,-6.8131,-6.8092,-6.8041,-6.8165,-6.8212,-6.8292,-6.8371,-6.8365,-6.8454,-6.8489,-6.8535,-6.8501,-6.8347,-6.8331,-6.8314,-6.8271,-6.8499,-6.8499,-6.8499,-6.8499,-6.8216,-6.8209,-6.8337,-6.8412,-6.8484,-6.8492,-6.8632,-6.8664,-6.8688,-6.871,-6.8676,-6.8619,-6.8602,-6.8595,-6.8572,-6.8533,-6.8822,-6.8823,-6.8823,-6.8359,-6.836,-6.8481,-6.8509,-6.8572,-6.8627,-6.8759,-6.8844,-6.8859,-6.8836,-6.8727,-6.8713,-6.8621,-6.8591,-6.8564,-6.8529,-6.8455,0,0]}]]